Dewpoint
59 66 65 62 58 54 50 54 42 35 30 27 33 35 34 40 41 40 41 43 41 45 48 47 46 48 47 48 48 50 50 42 43 35 35 59 67 66 65 64 66 67 67 68 68 71 73 73 73 73 73 73 72 72 72 73 72 71 71 71 72 71 70 70 70 69 69 68 67 67 67 68 69 68 69 72 72 71 70 69 69 69 69 69 69 69 69 69 69 69 69 70 70 71 71 71 71
54 63 61 58 52 48 42 52 32 25 22 25 26 33 32 32 41 37 39 42 42 46 50 50 53 55 55 54 50 52 49 61 58 60 65 66 66 65 65 66 67 67 68 68 69 70 71 72 74 73 73 72 72 72 72 73 72 71 71 71 71 72 71 71 70 69 69 68 67 67 67 67 66 67 68 71 72 71 70 69 69 68 69 69 69 69 69 68 68 70 70 70 70 71 71 71 71
58 59 56 56 48 44 45 41 24 24 17 18 19 24 27 36 29 22 35 42 45 50 54 54 54 52 51 51 47 49 48 62 64 65 64 66 64 65 66 66 67 67 68 69 69 70 71 72 73 73 72 72 72 72 72 73 71 71 71 71 72 71 71 70 70 69 68 68 67 67 66 66 67 66 67 69 70 70 70 69 68 68 68 68 68 68 69 69 69 69 70 70 70 70 71 71 70
54 54 54 52 43 42 45 29 23 20 15 16 17 17 20 19 19 27 29 43 50 53 52 50 47 52 48 46 48 53 55 56 61 65 64 64 64 65 67 67 68 67 69 69 70 70 71 73 73 73 73 72 72 72 72 73 71 71 71 71 72 72 72 71 70 69 68 68 67 67 67 66 66 66 67 68 70 70 70 69 68 68 68 68 69 69 68 68 69 69 70 70 70 70 70 70 70
51 53 52 42 42 32 26 24 23 19 16 19 16 18 20 20 23 34 41 49 52 52 47 49 48 50 50 50 50 46 49 61 64 66 65 65 66 67 68 68 68 68 68 69 70 70 70 73 73 73 72 72 72 72 72 73 72 71 71 71 72 71 71 70 70 70 69 68 67 67 67 67 67 67 68 68 69 70 69 68 68 67 68 68 68 69 69 69 69 70 70 70 70 70 70 70 70
50 51 49 43 34 31 21 19 22 17 17 20 16 16 18 21 32 41 48 49 52 50 45 47 46 48 46 51 56 55 61 52 64 65 66 66 66 68 68 68 68 67 68 70 70 70 70 73 73 73 72 72 72 72 73 73 72 71 70 71 72 71 71 71 70 70 69 69 68 68 67 68 68 68 68 68 69 69 68 68 68 68 68 69 69 69 69 69 70 70 70 70 70 70 70 70 70
51 51 47 42 36 28 25 20 17 16 16 19 16 17 19 29 42 47 47 48 51 51 49 45 49 47 43 54 58 64 65 64 63 64 66 66 67 68 68 67 67 67 69 69 69 69 69 73 73 73 72 72 72 72 72 73 72 70 70 71 72 72 72 71 71 70 70 69 68 68 67 68 68 69 69 70 69 70 68 68 68 68 68 69 69 69 68 69 70 70 70 70 71 70 70 69 70
47 29 39 36 30 24 22 20 18 18 17 19 18 18 22 37 46 45 46 45 46 46 48 48 52 47 50 59 50 62 66 66 66 67 67 67 67 67 67 67 67 67 67 69 69 69 72 73 73 73 72 72 72 72 72 73 72 70 71 71 72 72 71 72 71 70 70 69 69 68 68 68 69 70 70 71 71 69 69 69 68 69 69 69 69 69 69 70 71 70 70 71 70 70 70 69 71
45 26 28 20 23 23 21 19 18 20 19 19 19 24 40 40 46 45 45 46 44 47 46 50 53 44 49 55 56 62 65 66 67 68 67 67 67 67 68 67 66 67 68 68 69 70 71 73 73 73 72 72 72 72 72 72 72 71 71 72 72 72 72 72 71 71 70 70 69 69 69 69 69 70 70 70 70 70 69 69 69 70 69 69 69 69 70 70 71 70 70 70 70 69 69 69 71
39 25 23 24 21 18 17 18 19 18 19 19 18 20 30 42 46 44 45 44 47 48 48 55 54 49 54 54 57 63 64 66 66 66 67 67 67 67 68 67 67 67 67 68 69 70 70 73 73 73 72 72 72 73 72 72 72 71 71 72 72 72 72 72 71 71 70 70 69 70 70 70 69 69 70 70 70 70 70 70 70 70 70 70 70 70 70 71 71 70 70 70 70 70 70 70 71
26 23 25 21 21 19 17 17 18 18 19 20 20 22 23 40 45 45 46 46 53 49 51 54 48 54 54 57 61 65 66 66 66 66 67 67 67 67 67 68 68 67 67 68 69 70 70 71 73 73 72 73 72 73 73 73 73 72 72 72 72 72 72 72 71 70 70 70 70 70 70 70 70 69 69 69 70 70 70 70 70 70 70 70 70 70 70 70 70 70 70 70 70 70 69 70 70
21 21 20 19 19 18 17 17 18 19 20 20 20 21 23 35 45 44 46 45 51 50 48 52 47 55 53 56 59 65 65 66 65 67 67 67 67 67 66 68 68 67 67 68 68 70 70 70 71 72 73 73 73 73 73 73 73 72 72 73 72 72 72 72 71 70 70 70 70 70 69 69 69 69 69 69 69 69 69 69 69 70 70 69 70 70 70 70 70 70 70 69 70 70 70 69 70
19 22 20 19 19 18 21 18 17 22 20 19 19 21 33 42 42 42 45 44 51 50 49 53 56 55 51 55 62 65 65 65 66 67 66 66 66 66 67 67 68 68 67 68 67 69 70 69 69 71 71 73 73 73 73 73 73 73 73 72 72 72 72 72 71 71 70 70 69 69 69 69 69 69 69 69 69 69 69 69 69 69 69 70 70 70 70 70 70 70 70 70 70 70 70 70 70
22 23 20 17 21 18 17 17 19 18 19 20 20 24 43 46 47 46 47 46 49 45 54 55 56 53 55 56 62 64 64 67 67 67 66 66 66 66 66 66 67 67 67 67 67 68 69 70 70 71 72 72 72 73 73 73 73 73 73 72 72 72 72 72 71 71 71 70 69 68 68 68 68 68 68 69 69 69 69 69 68 69 69 69 70 70 70 70 70 69 69 70 70 71 70 70 70
23 26 22 22 19 19 18 17 16 17 17 20 21 22 23 27 48 49 46 43 48 54 57 58 57 46 47 51 54 61 64 65 66 66 66 66 66 66 66 67 67 67 67 68 67 69 69 70 69 70 72 71 71 72 72 72 73 73 73 72 72 72 72 71 71 71 71 70 69 68 67 67 67 66 67 67 68 69 68 68 68 69 69 69 69 69 70 70 69 69 70 70 70 71 70 70 69
34 27 31 22 18 17 18 17 19 17 17 19 21 22 22 35 49 48 46 45 50 57 56 52 56 52 55 52 56 62 65 65 66 66 66 66 66 66 66 67 67 67 67 68 69 69 69 70 69 70 71 70 71 71 72 72 72 72 72 72 72 72 72 71 71 71 70 70 69 68 68 67 66 66 66 65 66 68 69 68 68 67 68 68 69 69 69 69 69 69 70 70 70 70 69 69 70
28 31 28 26 23 20 19 18 18 18 18 20 24 22 19 33 31 45 51 53 52 55 56 57 56 57 56 57 61 65 65 65 66 65 65 65 66 66 66 66 66 66 67 68 69 69 69 69 70 70 70 71 71 71 71 71 71 72 72 72 71 71 71 71 71 70 70 69 68 68 68 67 67 66 66 65 65 68 69 68 67 68 68 68 68 69 69 69 69 70 70 70 70 70 68 69 70
31 31 28 26 26 25 22 21 20 20 19 22 22 23 23 24 26 49 54 54 55 56 55 58 60 62 60 62 64 65 65 65 66 65 64 64 65 64 64 65 65 65 66 67 68 68 69 69 69 70 70 71 71 71 70 71 71 71 71 71 71 71 71 71 70 68 67 67 67 67 68 67 67 66 67 66 68 68 67 67 67 68 68 68 69 69 69 69 69 69 68 69 69 69 68 67 68
27 29 28 25 26 28 27 26 21 22 21 22 24 26 23 21 37 46 49 54 52 53 55 56 57 61 62 63 64 64 64 65 66 65 64 64 64 64 64 64 65 64 65 65 67 68 68 68 69 69 69 70 70 70 70 70 69 70 70 70 70 70 70 70 68 68 66 66 66 66 68 68 66 66 67 66 67 67 66 67 67 68 68 68 68 68 70 70 69 68 68 69 68 69 68 66 66
22 26 25 25 26 25 29 29 24 23 34 30 24 26 23 25 28 35 37 53 52 47 51 55 54 59 61 63 64 64 64 65 66 65 64 64 64 64 64 64 64 64 64 65 65 67 68 68 68 68 68 70 69 69 70 70 70 70 70 70 70 70 70 68 68 68 66 65 66 68 68 68 67 68 67 67 66 67 66 67 67 67 68 68 70 68 69 69 68 67 68 68 68 67 66 66 65
19 21 22 23 26 25 24 25 27 21 34 28 29 29 23 23 27 24 52 52 52 50 52 50 51 57 62 63 64 64 65 65 65 65 65 64 64 65 64 64 63 63 64 65 65 66 67 68 68 69 69 69 70 69 69 69 70 70 70 69 70 69 69 69 68 68 68 67 67 68 67 67 66 66 67 67 66 66 65 66 67 67 68 68 68 68 68 65 65 61 66 67 66 66 65 67 67
18 18 20 20 24 24 23 23 23 23 24 26 31 30 29 24 25 25 44 26 37 48 50 53 49 59 63 63 63 64 65 65 65 64 65 65 64 64 64 65 65 65 65 64 64 65 66 67 68 68 69 69 69 69 69 69 69 69 69 69 69 69 68 68 67 67 66 68 66 66 67 66 66 65 66 67 67 67 66 65 66 67 67 67 68 66 65 65 65 63 67 66 66 68 67 68 68
14 15 17 20 20 22 21 21 22 22 23 24 31 30 29 25 26 31 39 24 31 48 50 53 52 61 63 64 64 65 65 65 65 65 65 64 64 65 64 63 63 63 64 63 64 64 66 67 67 68 68 69 69 69 69 69 69 69 69 68 68 67 68 67 66 66 65 65 65 66 66 64 64 65 65 66 67 67 65 65 66 67 66 67 68 65 66 68 67 68 69 69 67 66 65 67 69
18 13 15 15 18 19 21 20 22 22 23 23 30 37 29 26 25 29 33 41 36 46 50 53 53 62 64 63 65 65 65 65 65 66 65 65 65 65 64 64 63 64 64 63 64 65 65 66 66 67 67 68 69 69 69 68 69 69 69 68 68 68 67 66 65 65 65 65 66 66 66 65 65 65 66 66 67 66 66 66 66 66 66 67 67 66 68 68 68 68 68 68 66 65 65 67 67
23 19 19 18 16 18 19 20 21 22 23 23 29 33 30 28 26 27 29 34 38 41 49 48 59 62 62 63 65 65 65 66 66 66 66 65 66 66 65 65 64 64 64 64 64 65 65 66 66 65 66 68 68 68 68 68 68 69 69 68 68 68 67 66 65 65 66 65 66 67 66 66 66 67 67 67 66 65 67 66 67 66 66 67 67 68 68 68 68 67 68 68 67 66 67 68 67
24 24 23 22 22 23 20 17 20 22 22 22 24 29 29 29 30 27 28 32 30 40 44 54 59 61 61 63 65 65 65 66 66 65 65 66 65 65 65 64 64 64 64 64 64 64 64 65 65 65 66 67 68 68 68 68 68 69 68 68 68 68 66 66 66 65 66 66 66 67 68 68 67 67 68 68 67 66 67 66 66 66 66 67 68 68 69 70 67 68 68 68 66 66 66 68 68
23 22 22 22 23 24 24 17 16 20 22 22 21 23 28 30 30 27 40 31 26 31 44 56 58 59 61 64 65 65 64 65 66 66 65 65 65 65 65 64 64 64 64 64 64 64 65 65 65 66 66 68 68 67 68 68 69 68 68 68 68 67 66 66 65 66 66 66 67 68 67 67 68 68 67 68 67 67 67 67 66 66 67 67 68 68 69 69 69 68 67 67 67 67 67 67 67
21 22 22 23 24 22 23 21 19 18 19 23 21 20 23 27 27 26 28 35 32 38 42 53 53 55 58 61 64 65 65 65 65 65 65 65 64 64 64 64 64 64 64 64 64 64 65 65 65 66 67 68 68 67 68 68 68 68 68 68 68 67 67 65 66 66 65 65 67 69 68 68 68 68 68 68 68 68 68 67 67 67 68 68 68 69 69 69 68 68 68 68 68 68 68 68 66
20 22 20 21 23 22 23 22 20 18 16 22 23 21 21 21 23 25 26 33 31 28 43 53 55 58 57 60 63 64 63 64 65 64 65 65 65 65 65 65 65 64 64 65 65 65 65 66 65 66 67 68 68 68 67 68 68 68 68 68 67 67 66 66 66 66 64 66 68 69 69 68 69 68 69 69 68 68 69 68 67 68 68 69 69 69 69 69 68 68 69 67 66 66 66 67 65
22 21 19 19 20 19 22 23 20 16 15 21 21 15 16 20 21 22 32 38 39 32 36 45 49 57 57 58 60 62 64 64 64 64 65 65 66 66 65 65 65 65 64 64 65 64 65 66 66 67 67 67 68 68 68 68 68 68 68 68 68 67 66 66 66 66 65 65 67 69 69 69 68 69 68 69 69 69 69 68 68 68 69 69 69 69 68 68 67 68 67 65 63 63 64 66 65
15 17 19 16 17 15 20 22 21 18 18 22 18 13 14 16 20 27 41 41 39 36 32 40 51 55 56 58 59 60 63 64 64 65 66 66 66 65 66 65 65 65 65 65 65 66 66 66 66 66 67 67 68 68 68 68 68 68 67 67 67 68 67 67 66 65 64 64 66 67 69 69 68 68 68 69 69 69 68 67 68 68 68 69 68 68 68 67 67 67 66 64 63 63 63 65 64
21 14 14 17 13 12 20 23 21 17 16 19 18 13 14 15 18 36 48 46 43 36 36 37 45 52 56 57 58 59 61 63 65 65 66 66 66 65 65 65 66 65 65 65 66 66 65 66 67 67 67 67 68 68 68 68 68 68 67 67 67 68 66 67 66 65 63 64 66 67 69 69 69 67 67 68 69 68 67 68 68 68 68 68 68 68 67 66 66 66 64 63 61 61 62 64 64
18 15 14 16 16 12 13 18 20 19 15 17 17 12 14 14 23 40 49 47 46 37 37 42 50 53 55 56 58 59 60 61 63 63 65 65 65 65 65 65 65 66 65 65 65 65 64 66 66 66 67 67 67 68 68 68 68 68 68 67 67 67 66 68 66 66 64 64 65 66 68 69 68 67 68 68 69 69 68 68 68 68 68 67 67 67 66 66 67 65 63 62 63 62 62 63 63
13 21 17 21 16 18 13 17 17 18 17 13 16 14 14 16 20 28 43 45 45 38 41 50 50 52 54 55 57 58 59 60 60 62 64 65 65 66 66 65 66 65 65 65 65 65 65 65 66 67 67 67 67 67 68 68 67 68 67 67 68 66 67 68 67 66 65 63 65 66 68 69 68 68 68 69 70 69 68 68 68 67 67 67 67 67 66 67 67 66 63 62 62 63 62 63 62
14 14 16 17 17 19 17 13 16 15 15 14 14 14 14 14 19 21 35 45 41 37 41 47 51 52 54 56 57 58 58 59 60 61 64 65 65 66 65 66 66 66 65 65 65 65 65 66 66 66 67 67 67 68 68 68 68 68 68 68 67 67 67 67 67 66 65 65 65 67 68 70 69 68 68 69 69 69 68 68 68 67 67 67 67 66 66 66 67 66 62 61 62 62 62 64 63
17 18 18 19 15 15 15 18 19 19 17 14 13 13 13 14 15 24 29 40 37 33 38 49 55 55 56 57 57 57 58 58 60 62 63 64 64 65 65 65 66 65 65 65 65 65 65 66 66 66 67 67 68 68 67 67 66 66 66 67 67 66 66 66 68 66 67 64 66 68 69 70 68 68 68 69 69 69 68 68 68 67 67 66 66 66 65 65 66 64 62 61 61 60 61 61 61
17 17 17 17 17 17 18 19 20 19 18 17 15 14 13 14 16 20 27 32 37 35 33 41 52 57 57 57 57 57 58 59 61 61 63 64 64 65 65 65 66 66 66 66 65 65 65 65 66 66 66 67 66 66 66 66 66 66 66 66 66 66 66 66 67 68 67 66 67 67 69 69 70 69 67 68 69 69 68 68 68 67 67 66 66 66 67 66 66 64 61 61 60 60 59 60 60
12 14 14 15 16 16 17 18 18 18 18 18 20 19 19 19 20 20 23 28 28 35 35 38 44 55 58 57 57 57 58 61 62 62 64 64 63 66 66 65 66 65 66 66 65 65 65 66 66 66 67 67 67 67 66 67 67 66 66 66 66 66 65 64 66 68 68 68 68 69 69 69 69 68 68 68 68 68 68 67 67 66 66 66 67 67 68 66 65 63 60 59 59 59 60 59 59
13 12 12 12 12 15 16 17 18 18 17 18 18 17 18 20 20 20 22 25 29 33 36 39 41 48 55 57 58 58 59 59 61 61 64 63 64 65 65 66 66 66 66 66 66 66 66 66 66 67 67 67 67 67 67 66 68 68 67 67 66 66 66 67 67 68 69 69 69 69 69 68 68 67 68 68 68 68 68 68 67 67 66 66 66 66 66 65 64 62 60 58 57 59 58 58 59
11 11 11 10 11 12 10 16 17 16 16 15 16 15 19 22 23 22 22 20 22 29 29 34 40 44 51 55 57 59 59 59 60 60 62 63 64 64 65 65 66 66 66 66 66 66 65 65 66 67 67 67 67 68 68 68 68 69 69 68 68 67 66 68 69 69 69 69 68 68 68 69 68 67 68 68 67 67 68 67 66 66 66 66 67 66 65 65 65 62 61 60 58 56 55 56 57
14 11 9 8 10 10 11 11 15 14 13 14 15 17 18 20 20 21 24 23 21 18 21 30 36 43 50 54 56 57 58 60 60 60 62 63 64 64 64 65 66 66 66 65 66 65 66 66 66 67 67 67 68 68 68 68 68 68 68 68 68 67 68 67 67 66 67 67 67 68 67 68 68 68 68 68 67 68 67 67 66 67 66 66 67 66 65 66 64 62 62 60 59 57 54 56 55
10 13 11 10 11 9 11 11 10 8 10 12 14 15 15 18 18 19 19 21 21 21 21 23 30 33 35 47 53 57 60 60 60 61 61 63 63 64 64 65 65 66 66 66 66 66 66 66 66 67 67 67 68 68 68 68 67 67 67 66 65 65 64 64 64 64 66 66 66 67 67 67 67 67 67 67 66 66 66 67 68 67 68 67 66 66 66 66 64 63 62 61 60 61 58 55 54
10 6 13 12 11 11 10 9 8 6 6 12 14 13 14 18 18 19 22 20 20 24 25 21 25 30 32 40 49 53 56 57 59 60 61 63 64 64 65 65 65 65 66 66 66 66 66 66 66 67 67 67 68 68 68 67 67 67 66 66 65 65 64 65 66 66 66 65 67 67 67 67 67 67 67 67 67 67 67 68 68 67 66 66 66 66 65 66 64 63 62 61 60 60 60 55 55
4 13 15 14 12 12 11 11 8 5 14 14 14 12 14 14 16 18 23 21 22 25 27 27 21 26 33 36 42 50 55 58 58 59 60 62 63 64 64 64 65 65 66 66 66 66 66 66 66 67 67 67 67 68 67 68 67 66 67 66 66 66 65 65 66 67 67 67 66 66 66 66 67 67 67 67 66 67 67 67 67 67 66 65 64 64 64 65 64 64 63 62 62 61 60 58 57
4 13 13 10 10 12 12 11 11 10 9 5 4 8 11 12 16 17 19 17 17 18 20 23 24 24 29 34 38 42 50 56 57 59 61 61 63 64 64 64 65 65 65 66 66 66 66 66 66 67 67 68 68 68 67 67 67 67 66 66 66 66 66 66 67 66 66 66 67 66 66 66 66 67 67 67 66 66 67 66 66 66 66 65 63 63 64 64 65 64 64 63 63 61 61 61 60
9 11 10 9 9 9 9 9 10 13 13 10 7 6 4 5 14 15 17 16 16 17 18 19 22 26 28 27 33 39 42 51 56 58 59 61 62 64 65 65 65 65 66 66 66 66 66 66 66 66 66 67 68 68 68 67 67 67 66 66 66 66 66 66 66 65 66 66 66 66 66 65 66 66 66 66 66 66 66 65 65 65 66 64 62 63 64 64 64 64 64 64 64 63 62 61 61
10 11 9 5 4 5 10 10 10 13 12 11 9 9 5 1 10 12 16 17 18 18 19 21 23 23 25 29 28 31 39 45 47 53 57 60 62 63 64 64 65 65 66 66 66 65 66 65 65 65 66 67 67 68 68 68 67 67 66 66 66 66 66 66 65 65 65 66 65 66 66 65 65 65 66 66 66 66 66 65 64 64 65 64 62 61 63 61 62 63 63 64 64 63 62 62 61
11 10 7 5 5 13 10 14 13 10 8 8 9 10 10 7 10 10 13 17 17 19 18 19 20 19 23 28 24 26 28 38 46 51 54 58 60 62 63 64 65 65 66 66 66 65 65 65 65 65 66 66 67 68 68 67 66 66 67 67 66 66 67 65 65 65 65 66 66 65 65 65 65 65 66 66 66 66 66 65 64 63 63 64 62 62 63 62 62 61 61 61 62 63 63 62 61
12 11 9 5 2 9 5 6 9 8 4 8 10 10 10 10 12 14 13 13 14 18 16 18 20 20 29 25 27 30 31 35 40 49 55 58 59 61 63 63 65 65 65 66 65 65 65 65 64 65 65 66 67 67 67 68 67 67 66 66 66 67 67 66 65 65 65 65 65 64 64 64 64 64 64 65 65 65 65 65 64 63 63 63 63 61 62 61 61 60 60 60 61 61 61 62 60
11 11 11 6 1 1 3 3 7 4 8 10 9 11 7 8 9 13 10 10 10 15 21 22 21 25 28 25 26 27 34 32 39 46 52 57 59 61 62 63 63 65 65 66 66 65 65 65 65 64 65 66 67 67 67 68 67 67 67 66 66 66 67 66 66 65 65 65 65 64 64 64 64 64 64 65 64 63 63 63 63 63 63 62 61 61 60 59 60 57 59 58 58 59 60 61 61
10 11 8 8 4 -2 1 -2 5 5 2 7 9 9 11 4 7 13 13 11 11 9 9 13 21 23 29 29 20 17 22 27 31 40 47 53 60 62 63 63 64 65 65 65 65 65 65 64 64 64 64 66 66 66 67 67 66 66 66 66 66 66 66 65 65 66 66 65 66 65 65 64 64 64 64 66 63 63 63 62 62 62 62 61 60 60 59 59 59 57 57 58 58 57 57 58 59
11 7 9 8 7 6 1 6 7 8 8 9 14 13 14 5 20 18 17 14 13 13 12 14 14 15 17 21 21 20 20 20 24 35 46 54 58 61 63 63 64 64 65 66 65 65 65 64 64 64 64 65 66 66 66 67 67 67 66 66 66 67 66 66 65 66 66 66 66 65 65 65 64 64 66 65 62 62 62 61 61 61 61 60 60 59 58 57 57 57 56 56 56 54 56 56 56
11 8 9 6 7 3 8 14 15 18 8 5 10 11 11 12 12 10 12 12 11 11 11 11 14 15 24 23 20 19 20 18 26 33 37 52 57 60 62 63 64 65 65 65 65 65 65 65 65 64 64 65 65 66 67 67 67 66 67 67 67 67 67 66 65 66 66 66 66 66 66 65 66 65 65 63 62 62 62 61 60 60 60 59 59 58 57 57 57 57 56 55 55 54 54 54 54
10 8 9 8 7 7 9 1 6 4 1 6 11 4 5 6 8 19 15 14 11 11 11 12 20 22 23 26 31 27 24 23 26 29 38 47 51 56 60 62 63 64 65 65 65 66 66 65 65 64 64 64 65 66 66 66 66 66 67 67 67 67 66 66 66 66 65 65 66 67 67 66 65 64 64 62 61 61 61 60 60 59 59 58 58 57 55 56 56 55 55 54 54 54 53 53 52
13 10 9 6 9 7 6 6 2 2 3 3 5 5 4 4 8 11 11 12 15 14 14 16 18 23 23 24 26 29 31 36 36 35 38 42 48 54 58 61 62 63 65 65 65 65 65 65 65 65 64 64 65 65 66 66 66 66 67 67 67 66 66 65 65 65 65 65 66 66 66 65 65 64 62 61 60 59 60 59 59 58 58 57 57 57 56 55 55 55 54 53 53 52 51 51 52
13 13 12 10 10 11 6 9 12 5 3 7 5 2 3 5 8 12 11 15 16 16 19 18 18 20 29 29 29 31 35 39 36 38 37 39 44 50 54 59 59 62 63 64 65 65 65 65 65 64 65 65 65 65 65 65 65 66 67 67 67 66 66 65 65 65 65 64 64 65 65 65 64 62 62 60 59 58 58 58 57 57 56 56 55 55 55 55 55 54 53 51 51 51 49 50 50
11 11 9 8 14 15 14 23 8 6 6 7 6 5 8 11 14 10 11 13 21 24 24 24 25 25 26 30 35 37 37 39 39 39 41 42 45 50 53 58 58 61 63 63 64 65 65 65 64 64 64 64 65 65 64 64 65 65 66 66 65 66 66 65 65 65 65 64 65 65 64 64 63 62 61 59 58 57 57 57 56 55 55 55 55 55 54 54 53 53 52 52 50 49 48 49 49
14 10 8 5 6 6 7 8 16 19 10 14 10 9 11 18 27 26 23 25 24 24 26 28 29 30 39 45 47 47 46 45 44 42 41 44 46 49 53 57 60 62 63 63 64 65 65 64 63 63 63 63 64 64 64 64 65 65 65 66 66 66 65 65 65 65 64 64 64 65 64 63 62 61 59 58 57 57 57 55 54 54 54 53 54 53 53 53 51 52 52 52 50 48 47 48 48